Date String (YYYY-MM-DD hh:mm:ss) UTC,Instrument flags,absolute air pressure of the measurement (hPa),sample flow rate (lpm),inlet stack bypass flow (lpm),air temperature of the measurement (°C),ambient temperature measured by the external sensor (°C),aerosol sample conditioner tube jacket temperature (°C),OPC LED temperature (°C),internal box temperature (°C),relative humidity of the measurement (%),span deviation,mass concentration of particles derived from Lorenz-Mie calculation of OPC scattering (μg/m³),mass concentration of particles derived from Lorenz-Mie calculation of OPC scattering (μg/m³),mass concentration of particles derived from Lorenz-Mie calculation of OPC scattering (μg/m³)
DateTimeUTC,F1_M11,P_M11,Q1_M11,Q2_M11,T1_M11,T2_M11,T3_M11,T4_M11,T5_M11,U1_M11,ZSPAN_M11,X0_M11,X2_M11,X1_M11
2023-11-14 04:00:00,SystemResetWarning,0831.4,5.00,000.00,027.9,026.7,000.0,036.3,029.2,7.8,0000.0,0010.91,0003.50,0002.64
2023-11-14 04:01:00,SystemResetWarning,0831.4,5.00,000.00,027.9,026.7,000.0,036.3,029.2,7.8,0000.0,0009.98,0003.48,0002.66
2023-11-14 04:02:00,SystemResetWarning,0831.4,5.00,000.00,027.9,026.7,000.0,036.3,029.2,7.5,0000.0,0010.07,0003.44,0002.65
2023-11-14 04:03:00,SystemResetWarning,0831.4,5.00,000.00,027.9,026.7,000.0,036.3,029.2,7.5,0000.0,0010.57,0003.46,0002.69
2023-11-14 04:04:00,SystemResetWarning,0831.4,5.00,000.00,027.9,026.7,000.0,036.3,029.3,7.6,0000.0,0011.15,0003.50,0002.72
2023-11-14 04:05:00,SystemResetWarning,0831.4,5.00,000.00,027.9,026.7,000.0,036.3,029.3,7.6,0000.0,0011.13,0003.50,0002.75
2023-11-14 04:06:00,SystemResetWarning,0831.4,5.00,000.00,027.9,026.7,000.0,036.3,029.2,7.7,0000.0,0010.94,0003.52,0002.78
2023-11-14 04:07:00,SystemResetWarning,0831.4,5.00,000.00,027.9,026.7,000.0,036.3,029.3,7.8,0000.0,0010.89,0003.57,0002.84
2023-11-14 04:08:00,SystemResetWarning,0831.4,5.00,000.00,027.9,026.7,000.0,036.3,029.3,7.9,0000.0,0011.04,0003.59,0002.87
2023-11-14 04:09:00,SystemResetWarning,0831.4,5.00,000.00,027.9,026.8,000.0,036.3,029.3,8.1,0000.0,0010.57,0003.57,0002.87
2023-11-14 04:10:00,SystemResetWarning,0831.4,5.00,000.00,027.9,026.8,000.0,036.3,029.2,8.0,0000.0,0009.46,0003.59,0002.89
2023-11-14 04:11:00,SystemResetWarning,0831.5,5.00,000.00,027.9,026.8,000.0,036.3,029.3,8.0,0000.0,0009.45,0003.59,0002.91
2023-11-14 04:12:00,SystemResetWarning,0831.5,4.99,000.00,027.9,026.9,000.0,036.3,029.2,7.9,0000.0,0009.95,0003.63,0002.93
2023-11-14 04:13:00,SystemResetWarning,0831.4,5.00,000.00,027.9,026.8,000.0,036.3,029.2,7.7,0000.0,0009.77,0003.72,0003.00
2023-11-14 04:14:00,SystemResetWarning,0831.5,5.00,000.00,027.9,026.8,000.0,036.3,029.2,7.6,0000.0,0009.73,0003.80,0003.07
2023-11-14 04:15:00,SystemResetWarning,0831.4,5.00,000.00,027.9,026.7,000.0,036.3,029.2,7.7,0000.0,0009.68,0003.90,0003.16
2023-11-14 04:16:00,SystemResetWarning,0831.4,5.00,000.00,027.9,026.7,000.0,036.3,029.2,7.7,0000.0,0009.76,0004.01,0003.23
2023-11-14 04:17:00,SystemResetWarning,0831.5,5.00,000.00,027.9,026.7,000.0,036.3,029.2,7.8,0000.0,0010.42,0004.11,0003.29
2023-11-14 04:18:00,SystemResetWarning,0831.4,5.01,000.00,027.8,026.7,000.0,036.3,029.2,7.7,0000.0,0010.50,0004.14,0003.34
2023-11-14 04:19:00,SystemResetWarning,0831.4,5.01,000.00,027.8,026.7,000.0,036.3,029.2,7.8,0000.0,0010.76,0004.21,0003.36
2023-11-14 04:20:00,SystemResetWarning,0831.4,5.00,000.00,027.8,026.7,000.0,036.2,029.2,7.9,0000.0,0010.72,0004.23,0003.37
2023-11-14 04:21:00,SystemResetWarning,0831.4,5.00,000.00,027.8,026.7,000.0,036.2,029.2,7.9,0000.0,0010.81,0004.26,0003.39
2023-11-14 04:22:00,SystemResetWarning,0831.4,5.00,000.00,027.8,026.7,000.0,036.2,029.2,7.9,0000.0,0011.50,0004.32,0003.40
2023-11-14 04:23:00,SystemResetWarning,0831.5,5.00,000.00,027.8,026.7,000.0,036.2,029.2,7.8,0000.0,0011.52,0004.42,0003.44
2023-11-14 04:24:00,SystemResetWarning,0831.4,4.99,000.00,027.8,026.7,000.0,036.2,029.2,7.6,0000.0,0011.46,0004.41,0003.47
2023-11-14 04:25:00,SystemResetWarning,0831.4,5.00,000.00,027.8,026.7,000.0,036.2,029.2,7.6,0000.0,0012.09,0004.43,0003.50
2023-11-14 04:26:00,SystemResetWarning,0831.4,5.00,000.00,027.8,026.7,000.0,036.2,029.2,7.7,0000.0,0011.68,0004.40,0003.50
2023-11-14 04:27:00,SystemResetWarning,0831.3,5.00,000.00,027.8,026.7,000.0,036.2,029.2,7.7,0000.0,0011.55,0004.40,0003.50
2023-11-14 04:28:00,SystemResetWarning,0831.4,5.00,000.00,027.8,026.7,000.0,036.2,029.2,7.8,0000.0,0011.45,0004.41,0003.50
2023-11-14 04:29:00,SystemResetWarning,0831.3,5.00,000.00,027.8,026.7,000.0,036.2,029.2,7.8,0000.0,0011.64,0004.40,0003.49
2023-11-14 04:30:00,SystemResetWarning,0831.4,5.00,000.00,027.8,026.7,000.0,036.2,029.2,7.9,0000.0,0011.27,0004.35,0003.48
2023-11-14 04:31:00,SystemResetWarning,0831.3,5.01,000.00,027.8,026.7,000.0,036.2,029.2,7.9,0000.0,0011.63,0004.39,0003.48
2023-11-14 04:32:00,SystemResetWarning,0831.3,5.00,000.00,027.8,026.7,000.0,036.2,029.2,7.9,0000.0,0012.29,0004.40,0003.49
2023-11-14 04:33:00,SystemResetWarning,0831.3,5.00,000.00,027.8,026.8,000.0,036.2,029.2,8.0,0000.0,0012.37,0004.38,0003.50
2023-11-14 04:34:00,SystemResetWarning,0831.3,5.00,000.00,027.8,026.8,000.0,036.2,029.3,8.1,0000.0,0012.54,0004.35,0003.51
2023-11-14 04:35:00,SystemResetWarning,0831.3,5.01,000.00,027.8,026.8,000.0,036.2,029.3,8.1,0000.0,0012.87,0004.36,0003.51
2023-11-14 04:36:00,SystemResetWarning,0831.3,5.00,000.00,027.8,026.8,000.0,036.2,029.3,8.0,0000.0,0013.00,0004.33,0003.50
2023-11-14 04:37:00,SystemResetWarning,0831.3,5.00,000.00,027.8,026.8,000.0,036.2,029.3,8.0,0000.0,0013.81,0004.32,0003.48
2023-11-14 04:38:00,SystemResetWarning,0831.3,4.99,000.00,027.8,026.8,000.0,036.2,029.2,7.9,0000.0,0014.73,0004.37,0003.49
2023-11-14 04:39:00,SystemResetWarning,0831.3,5.00,000.00,027.8,026.8,000.0,036.2,029.2,8.0,0000.0,0015.27,0004.43,0003.53
2023-11-14 04:40:00,SystemResetWarning,0831.3,5.00,000.00,027.8,026.8,000.0,036.2,029.3,8.0,0000.0,0015.15,0004.49,0003.60
2023-11-14 04:41:00,SystemResetWarning,0831.3,5.00,000.00,027.9,026.8,000.0,036.2,029.2,8.1,0000.0,0015.65,0004.61,0003.71
2023-11-14 04:42:00,SystemResetWarning,0831.2,5.00,000.00,027.9,026.8,000.0,036.2,029.2,8.1,0000.0,0015.90,0004.75,0003.81
2023-11-14 04:43:00,SystemResetWarning,0831.3,5.00,000.00,027.8,026.8,000.0,036.2,029.3,8.1,0000.0,0015.42,0004.85,0003.89
2023-11-14 04:44:00,SystemResetWarning,0831.3,5.01,000.00,027.9,026.9,000.0,036.2,029.2,8.0,0000.0,0015.00,0004.95,0003.96
2023-11-14 04:45:00,SystemResetWarning,0831.3,5.01,000.00,027.9,026.9,000.0,036.2,029.3,8.1,0000.0,0014.78,0005.08,0004.02
2023-11-14 04:46:00,SystemResetWarning,0831.3,5.00,000.00,027.9,026.9,000.0,036.2,029.3,8.1,0000.0,0015.07,0005.18,0004.09
2023-11-14 04:47:00,SystemResetWarning,0831.3,5.00,000.00,027.9,026.9,000.0,036.2,029.3,8.2,0000.0,0014.24,0005.25,0004.13
2023-11-14 04:48:00,SystemResetWarning,0831.3,5.00,000.00,027.9,026.9,000.0,036.2,029.3,8.2,0000.0,0014.48,0005.30,0004.16
2023-11-14 04:49:00,SystemResetWarning,0831.3,5.00,000.00,027.9,026.9,000.0,036.2,029.3,8.1,0000.0,0014.29,0005.26,0004.15
2023-11-14 04:50:00,SystemResetWarning,0831.3,5.00,000.00,027.9,026.9,000.0,036.2,029.2,8.1,0000.0,0014.42,0005.17,0004.10
2023-11-14 04:51:00,SystemResetWarning,0831.3,5.00,000.00,027.9,026.8,000.0,036.2,029.2,8.1,0000.0,0014.98,0005.17,0004.08
2023-11-14 04:52:00,SystemResetWarning,0831.3,5.00,000.00,027.9,026.8,000.0,036.2,029.2,8.2,0000.0,0015.66,0005.33,0004.09
2023-11-14 04:53:00,SystemResetWarning,0831.3,4.99,000.00,027.9,026.9,000.0,036.2,029.2,8.2,0000.0,0017.10,0005.45,0004.13
2023-11-14 04:54:00,SystemResetWarning,0831.3,5.00,000.00,027.9,026.8,000.0,036.2,029.2,8.1,0000.0,0017.49,0005.51,0004.15
2023-11-14 04:55:00,SystemResetWarning,0831.3,5.00,000.00,027.9,026.8,000.0,036.2,029.3,8.1,0000.0,0017.79,0005.55,0004.15
2023-11-14 04:56:00,SystemResetWarning,0831.3,5.01,000.00,027.9,026.8,000.0,036.2,029.2,8.1,0000.0,0019.47,0005.52,0004.12
2023-11-14 04:57:00,SystemResetWarning,0831.3,5.00,000.00,027.9,026.9,000.0,036.2,029.3,8.1,0000.0,0019.52,0005.55,0004.10
2023-11-14 04:58:00,SystemResetWarning,0831.4,5.00,000.00,027.9,026.9,000.0,036.2,029.3,8.1,0000.0,0019.69,0005.63,0004.12
2023-11-14 04:59:00,SystemResetWarning,0831.4,5.00,000.00,027.9,026.9,000.0,036.2,029.3,8.1,0000.0,0019.70,0005.67,0004.14
